Fort Smith, AR

5:14 PM CDT on April 22, 2018 (GMT -0500)
Fort Smith Regional

Weather History for KFSM - November, 2010

Change the Weather History Date:

Saturday, November 27, 2010

  Actual Average Record
Temperature  
Mean Temperature 44 °F 47 °F  
Max Temperature 61 °F 57 °F 81 °F (1964)
Min Temperature 27 °F 36 °F 13 °F (1975)
Degree Days  
Heating Degree Days 21 18  
Month to date heating degree days 272 354  
Since 1 July heating degree days 350 508  
Moisture  
Dew Point 26 °F    
Average Humidity 54    
Maximum Humidity 85    
Minimum Humidity 23    
Precipitation  
Precipitation 0.00 in 0.14 in 1.57 in (2015)
Month to date precipitation 2.13 4.01  
Year to date precipitation 32.79 41.74  
Sea Level Pressure  
Sea Level Pressure 30.20 in    
Wind  
Wind Speed 1 mph (SW)    
Max Wind Speed 9 mph    
Max Gust Speed 14 mph    
Visibility 10 miles    
Events      
T = Trace of Precipitation, MM = Missing Value Source: NWS Daily Summary

Daily Weather History Graph

Daily Weather History Graph

Search for Another Location

Airport or City:

Astronomy

Nov. 27, 2010 Rise Set
Actual Time 7:04 AM CST 5:05 PM CST
Civil Twilight 6:36 AM CST 5:33 PM CST
Nautical Twilight 6:05 AM CST 6:04 PM CST
Astronomical Twilight 5:34 AM CST 6:35 PM CST
Moon 11:19 PM CST (11/27) 11:49 AM CST (11/27)
Length of Visible Light 10h 56m
Length of Day
10h 01m
Waning Gibbous, 62% of the Moon is Illuminated
Nov 27
Waning Gibbous
Nov 28
Last Quarter
Dec 5
New
Dec 13
First Quarter
Dec 21
Full

Hourly Weather History & Observations

Time (CST) Temp. Windchill Dew Point Humidity Pressure Visibility Wind Dir Wind Speed Gust Speed Precip Events Conditions
12:53 AM 34.0 °F 31.0 °F 25.0 °F 70% 30.23 in 10.0 mi WSW 3.5 mph - N/A   Clear
1:53 AM 34.0 °F 31.0 °F 26.1 °F 73% 30.24 in 10.0 mi WSW 3.5 mph - N/A   Clear
2:53 AM 30.0 °F - 25.0 °F 82% 30.24 in 10.0 mi Calm Calm - N/A   Clear
3:53 AM 32.0 °F - 25.0 °F 75% 30.23 in 10.0 mi Calm Calm - N/A   Clear
4:53 AM 28.9 °F - 25.0 °F 85% 30.24 in 10.0 mi Calm Calm - N/A   Clear
5:21 AM 28.4 °F - 24.8 °F 86% 30.23 in 10.0 mi Calm Calm - N/A   Partly Cloudy
5:53 AM 28.9 °F - 24.1 °F 82% 30.25 in 10.0 mi Calm Calm - N/A   Clear
6:53 AM 28.0 °F - 24.1 °F 85% 30.26 in 10.0 mi Calm Calm - N/A   Clear
7:53 AM 30.9 °F - 26.1 °F 82% 30.27 in 10.0 mi Calm Calm - N/A   Clear
8:53 AM 37.0 °F - 30.0 °F 76% 30.28 in 10.0 mi Calm Calm - N/A   Clear
9:53 AM 42.8 °F - 30.2 °F 61% 30.26 in 10.0 mi Calm Calm - N/A   Clear
10:53 AM 50.0 °F - 24.1 °F 36% 30.26 in 10.0 mi West 6.9 mph - N/A   Clear
11:53 AM 53.1 °F - 23.0 °F 31% 30.23 in 10.0 mi SW 4.6 mph - N/A   Clear
12:53 PM 55.9 °F - 23.0 °F 28% 30.21 in 10.0 mi Variable 5.8 mph - N/A   Clear
1:53 PM 57.9 °F - 24.1 °F 27% 30.18 in 10.0 mi Calm Calm - N/A   Clear
2:53 PM 60.1 °F - 24.1 °F 25% 30.16 in 10.0 mi Calm Calm - N/A   Clear
3:53 PM 60.1 °F - 23.0 °F 24% 30.15 in 10.0 mi Calm Calm - N/A   Clear
4:53 PM 54.0 °F - 28.0 °F 37% 30.13 in 10.0 mi ENE 5.8 mph - N/A   Clear
5:53 PM 51.1 °F - 27.0 °F 39% 30.13 in 10.0 mi Calm Calm - N/A   Clear
6:53 PM 45.0 °F - 30.0 °F 56% 30.14 in 10.0 mi Calm Calm - N/A   Clear
7:53 PM 42.1 °F - 30.0 °F 62% 30.14 in 10.0 mi Calm Calm - N/A   Clear
8:53 PM 37.9 °F - 30.0 °F 73% 30.15 in 10.0 mi Calm Calm - N/A   Clear
9:53 PM 39.9 °F - 30.0 °F 68% 30.14 in 10.0 mi Calm Calm - N/A   Clear
10:53 PM 39.0 °F 36.8 °F 30.0 °F 70% 30.13 in 10.0 mi ENE 3.5 mph - N/A   Clear
11:53 PM 37.9 °F - 30.0 °F 73% 30.12 in 10.0 mi Calm Calm - N/A   Clear